Weather observations for the past three days for
New Roads False River Regional Airport
Imperial (Metric)
Date Time (cdt) Wind (mph) Vis. (mi.) Weather Sky Cond. Temperature (ºF) Relative Humidity Wind Chill (°F) Heat Index (°F) Pressure Precipitation (in)
Air Dwpt 6 hour altimeter (in) sea level (mb) 1 hr 3 hr 6 hr
Max. Min.
17 07:55 S 5 10.00 Fair CLR 80.1 78.4 95% 87 30.05 0.0
17 07:35 SW 3 10.00 Thunderstorm CLR 78.6 77.7 97% 82 30.04 0.0
17 07:15 Calm 10.00 Thunderstorm in Vicinity CLR 77.5 77 98% 79 30.03 0.0
17 06:55 Calm 10.00 Fair CLR 76.5 76.1 99% 76 30.04 0.0
17 06:35 W 3 10.00 NULL NULL 75.4 74.7 98% 74 30.03 0.0
16 23:55 S 5 10.00 Fair CLR 80.6 75.7 85% 86 30 0.0
16 23:35 S 3 10.00 Fair CLR 81 75.7 84% 87 30 0.0
16 23:15 S 3 10.00 Fair CLR 81.1 76.1 85% 88 30 0.0
16 22:55 S 5 10.00 Fair CLR 81.1 76.1 85% 88 30 0.0
16 22:35 S 5 10.00 Fair CLR 80.6 76.5 87% 87 30 0.0
16 22:15 S 3 10.00 Fair CLR 80.8 76.3 86% 87 30 0.0
16 21:55 SW 3 10.00 Fair CLR 81.3 76.3 85% 88 29.99 0.0
16 21:35 SW 3 10.00 Fair CLR 81.5 76.5 85% 89 29.99 0.0
16 21:15 S 6 10.00 Fair CLR 81.9 76.5 84% 89 29.98 0.0
16 20:55 Calm 10.00 Fair CLR 82.8 76.8 82% 91 29.98 0.0
16 20:35 Calm 10.00 Fair CLR 82.8 77 83% 92 29.98 0.0
16 20:15 Calm 10.00 Fair CLR 83.3 77.2 82% 93 29.97 0.0
16 19:55 Calm 10.00 Fair CLR 84.6 77.4 79% 95 29.97 0.0
16 19:35 S 3 10.00 Fair CLR 85.8 76.6 74% 96 29.98 0.0
16 19:15 S 5 10.00 Fair CLR 86.4 76.3 72% 97 29.98 0.0
16 18:55 SE 8 10.00 Fair CLR 86.7 75.7 91.2 84.9 70% 97 29.98 0.0
16 18:35 SE 6 10.00 Fair CLR 87.3 75.9 69% 98 29.98 0.0
16 18:15 S 5 10.00 Fair CLR 86.9 76.5 71% 98 29.97 0.0
16 17:55 S 3 10.00 Fair CLR 86 77.5 76% 98 29.98 0.0
16 17:35 SE 6 10.00 Fair CLR 85.3 76.8 76% 96 29.98 0.0
16 17:15 S 8 10.00 Fair CLR 86 75.7 72% 96 29.97 0.0
16 16:55 S 3 10.00 Fair CLR 86.9 75.4 69% 97 29.97 0.0
16 16:35 SE 5 10.00 Fair CLR 87.3 75.6 68% 97 29.99 0.0
16 16:15 S 7 10.00 Fair CLR 88 75 66% 98 30 0.0
16 15:55 S 6 10.00 Fair CLR 88.7 75.7 66% 100 29.99 0.0
16 15:35 S 7 10.00 Fair CLR 89.6 75 62% 100 30 0.0
16 15:15 S 3 10.00 Fair CLR 90.1 75 61% 101 30 0.0
16 14:55 S 7 10.00 Partly Cloudy SCT042 SCT050 SCT055 90.5 75 61% 101 30 0.0
16 14:35 Calm 10.00 Partly Cloudy SCT040 SCT049 SCT055 90.9 75 60% 102 30 0.0
16 14:15 SE 7 10.00 Partly Cloudy SCT037 SCT048 90.7 75.6 61% 102 30 0.0
16 13:55 S 6 10.00 Partly Cloudy SCT034 90.5 76.3 63% 103 30.01 0.0
16 13:35 SE 5 10.00 Partly Cloudy SCT032 89.2 75.7 65% 100 30.02 0.0
16 13:15 S 5 10.00 Fair CLR 89.4 76.3 65% 101 30.03 0.0
16 12:55 S 6 10.00 Fair CLR 87.8 75.4 89.8 74.1 67% 98 30.03 0.0
16 12:35 S 5 10.00 Fair CLR 88 75.2 66% 98 30.03 0.0
16 12:15 SE 6 10.00 Fair CLR 88.2 75.6 66% 99 30.04 0.0
16 11:55 SE 5 10.00 Partly Cloudy SCT035 89.1 75.2 64% 99 30.04 0.0
16 11:35 SE 5 10.00 Partly Cloudy SCT035 89.8 75.2 62% 100 30.04 0.0
16 11:15 SE 7 10.00 Partly Cloudy SCT032 SCT039 88.3 74.7 64% 98 30.04 0.0
16 10:55 SE 8 10.00 Partly Cloudy SCT030 SCT039 88.7 75.2 64% 99 30.04 0.0
16 10:35 SE 6 10.00 Partly Cloudy SCT030 SCT035 88.2 75.6 66% 99 30.04 0.0
16 10:15 SE 7 10.00 Partly Cloudy SCT026 86.9 75.4 69% 97 30.04 0.0
16 09:55 SE 7 10.00 Fair CLR 86.9 75.9 70% 97 30.04 0.0
16 09:35 E 7 10.00 Fair CLR 86 77 75% 97 30.04 0.0
16 09:15 E 5 10.00 Fair CLR 84.9 76.5 76% 95 30.04 0.0
16 08:55 E 3 10.00 Fair CLR 83.5 77.2 81% 93 30.04 0.0
16 08:35 Calm 10.00 Fair CLR 81.5 76.3 84% 89 30.04 0.0
16 08:15 Calm 10.00 Fair CLR 79.7 76.6 90% 85 30.05 0.0
16 07:55 Calm 10.00 Fair CLR 78.4 76.8 95% 82 30.04 0.0
16 07:35 Calm 10.00 Fair CLR 76.8 75.7 96% 77 30.04 0.0
16 07:15 Calm 10.00 Fair CLR 75.6 74.8 98% 74 30.03 0.0
16 06:55 Calm 10.00 Fair CLR 74.1 73.4 98% 30.03 0.0
16 06:35 Calm 10.00 Fair CLR 73.6 72.9 98% 30.02 0.0
16 06:15 Calm 10.00 Fair CLR 73.6 72.9 98% 30.02 0.0
16 05:55 Calm 10.00 Fair CLR 73.9 73.2 98% 30.01 0.0
16 05:35 Calm 10.00 Fair CLR 73.9 73 97% 30.01 0.0
16 05:15 Calm 10.00 Fair CLR 74.1 73.2 97% 30.01 0.0
16 04:55 Calm 10.00 Fair CLR 73.8 72.7 96% 30.01 0.0
16 04:35 Calm 10.00 Fair CLR 74.1 73 96% 30.01 0.0
16 04:15 Calm 10.00 Fair CLR 74.5 73.4 96% 30.01 0.0
16 03:55 Calm 10.00 Fair CLR 74.3 72.9 95% 30.02 0.0
16 03:35 Calm 10.00 Fair CLR 73.6 72.1 95% 30.02 0.0
16 03:15 Calm 10.00 Fair CLR 74.8 73.4 95% 30.02 0.0
16 02:55 Calm 10.00 Fair CLR 74.3 72.7 95% 30.02 0.0
16 02:35 Calm 10.00 Fair CLR 75 72.9 93% 74 30.01 0.0
16 02:15 Calm 0.00 NULL NULL 0 0 0% 30.01 0.0
16 01:15 Calm 10.00 Fair CLR 74.7 72.5 93% 30.01 0.0
16 00:55 Calm 10.00 Fair CLR 75.7 72.5 80.6 74.7 90% 76 30.01 0.0
16 00:35 Calm 10.00 Fair CLR 75.7 73.2 92% 75 30.01 0.0
16 00:15 Calm 10.00 Fair CLR 75.4 73 92% 74 30.01 0.0
15 23:55 Calm 10.00 Fair CLR 75.2 73 93% 74 30.01 0.0
15 23:35 Calm 10.00 Fair CLR 74.7 72.5 93% 30.01 0.0
15 23:15 Calm 10.00 Fair CLR 75.4 72.7 91% 75 30 0.0
15 22:55 Calm 10.00 Fair CLR 75.2 72.5 91% 74 30 0.0
15 22:35 Calm 10.00 Fair CLR 75.6 72.1 89% 75 30 0.0
15 22:15 Calm 10.00 Fair CLR 76.1 72 87% 77 30 0.0
15 21:55 S 3 10.00 Fair CLR 77 71.8 84% 78 30 0.0
15 21:35 Calm 10.00 Fair CLR 77.5 71.6 82% 79 30 0.0
15 21:15 S 3 10.00 Fair CLR 77.2 71.4 82% 79 29.99 0.0
15 20:55 S 3 10.00 Fair CLR 77.9 71.6 81% 80 30 0.0
15 20:35 Calm 10.00 Fair CLR 78.3 70.9 78% 81 30 0.0
15 20:15 S 3 10.00 Fair CLR 78.8 71.4 78% 82 29.99 0.0
15 19:55 Calm 10.00 Fair CLR 79.2 71.2 77% 82 29.99 0.0
15 19:35 Calm 10.00 Fair CLR 79.3 71.8 78% 83 29.99 0.0
15 19:15 S 5 10.00 Fair CLR 79.9 72 77% 84 29.99 0.0
15 18:55 Calm 10.00 Fair CLR 80.6 71.8 93.2 80.6 75% 85 29.99 0.0
15 18:35 S 6 10.00 Fair CLR 81.1 71.6 73% 85 30 0.0
15 18:15 SE 5 10.00 Partly Cloudy SCT050 SCT060 82 72.1 72% 87 29.99 0.0
15 17:55 Calm 10.00 Thunderstorm SCT050 SCT070 SCT100 82.4 74.3 77% 89 29.99 0.0
15 17:35 SE 8 10.00 Thunderstorm in Vicinity CLR 83.3 74.7 75% 91 30 0.0
15 17:15 S 12 G 20 10.00 Partly Cloudy SCT049 84.6 73.9 71% 92 30 0.0
15 16:55 S 7 10.00 Thunderstorm in Vicinity SCT043 SCT070 SCT080 88.5 75.6 66% 99 30 0.0
15 16:35 S 5 10.00 Mostly Cloudy SCT043 SCT060 BKN120 90 75.4 62% 101 29.99 0.0
15 16:15 SE 6 10.00 Partly Cloudy SCT100 92.3 75 57% 104 30 0.0
15 15:55 Calm 10.00 Partly Cloudy SCT043 SCT050 91.8 75.2 58% 103 30 0.0
15 15:35 S 6 10.00 Partly Cloudy SCT043 92.8 75 56% 104 30.02 0.0
15 15:15 Calm 10.00 Partly Cloudy SCT041 91.6 74.8 58% 102 30.03 0.0
15 14:55 Calm 10.00 Partly Cloudy SCT043 SCT050 92.5 75.6 58% 104 30.03 0.0
15 14:35 Calm 10.00 Partly Cloudy SCT041 SCT050 91.4 74.1 57% 101 30.04 0.0
15 14:15 S 3 10.00 Partly Cloudy SCT041 92.7 76.5 59% 106 30.04 0.0
15 13:55 Calm 10.00 Partly Cloudy SCT041 90.9 75.4 61% 102 30.05 0.0
15 13:35 NE 3 10.00 Fair CLR 90.9 74.5 59% 101 30.05 0.0
15 13:15 Calm 10.00 Partly Cloudy SCT036 91.4 76.1 61% 104 30.06 0.0
15 12:55 Calm 10.00 Partly Cloudy SCT031 89.6 75 90 74.8 62% 100 30.07 0.0
15 12:35 Calm 10.00 Partly Cloudy SCT031 89.1 74.3 62% 98 30.08 0.0
15 12:15 Calm 10.00 Partly Cloudy SCT029 89.6 76.1 65% 101 30.09 0.0
15 11:55 Calm 10.00 Partly Cloudy SCT029 88.5 76.1 67% 100 30.09 0.0
15 11:35 E 3 10.00 Partly Cloudy SCT023 SCT029 SCT035 87.1 76.1 70% 98 30.1 0.0
15 11:15 NE 3 10.00 Partly Cloudy SCT021 86.7 77 73% 98 30.1 0.0
15 10:55 NE 5 10.00 Partly Cloudy SCT021 86.4 77.7 76% 99 30.11 0.0
15 10:35 Calm 10.00 Fair CLR 85.3 78.1 79% 97 30.11 0.0
15 10:15 NE 5 10.00 Fair CLR 83.8 77 80% 94 30.11 0.0
15 09:55 Calm 10.00 Fair CLR 83.1 77.4 83% 93 30.12 0.0
15 09:35 Calm 10.00 Fair CLR 81.9 77.5 87% 90 30.12 0.0
15 09:15 Calm 10.00 Fair CLR 81.1 77 87% 88 30.12 0.0
15 08:55 Calm 10.00 Fair CLR 80.6 77.5 90% 87 30.12 0.0
15 08:35 Calm 10.00 Fair CLR 79.7 78.4 96% 86 30.12 0.0
15 08:15 Calm 10.00 Fair CLR 79.3 78.4 97% 85 30.12 0.0
15 07:55 Calm 10.00 Fair CLR 78.1 77.5 98% 81 30.11 0.0
15 07:35 Calm 7.00 Fair CLR 77 76.5 98% 78 30.1 0.0
15 07:15 Calm 7.00 Fair CLR 75.9 75.6 99% 75 30.1 0.0
15 06:55 Calm 5.00 Fog/Mist CLR 74.8 74.5 99% 30.1 0.0
15 06:35 Calm 4.00 Fog/Mist SCT002 74.5 74.3 99% 30.09 0.0
15 06:15 Calm 7.00 Partly Cloudy SCT002 73.8 73.4 99% 30.09 0.0
15 05:55 Calm 7.00 Partly Cloudy SCT002 74.3 73.9 99% 30.08 0.0
15 05:35 Calm 5.00 Fog/Mist BKN002 73.9 73.6 99% 30.08 0.0
15 05:15 Calm 7.00 NULL NULL 74.5 73.9 98% 30.07 0.0
15 04:15 Calm 5.00 Fog/Mist CLR 74.7 74.3 99% 30.05 0.0
15 03:55 Calm 5.00 Fog/Mist CLR 75.2 74.5 98% 73 30.05 0.0
15 03:35 Calm 10.00 Fair CLR 75.2 74.5 98% 73 30.05 0.0
15 03:15 Calm 10.00 Fair CLR 74.8 74.1 98% 30.05 0.0
15 02:55 SE 3 7.00 NULL NULL 75.4 74.7 98% 74 30.05 0.0
15 01:15 Calm 10.00 Fair CLR 76.3 75.4 97% 76 30.09 0.0
15 00:55 Calm 10.00 Fair CLR 77 76.1 86.7 77 97% 78 30.1 0.0
15 00:35 Calm 10.00 Fair CLR 77.2 76.1 96% 78 30.11 0.0
15 00:15 Calm 10.00 Fair CLR 77.5 76.3 96% 79 30.11 0.0
14 23:55 Calm 10.00 Fair CLR 77.9 76.6 96% 80 30.11 0.0
14 23:35 Calm 10.00 Fair CLR 77.9 76.5 95% 80 30.11 0.0
14 23:15 Calm 10.00 Fair CLR 77.9 76.3 95% 80 30.1 0.0
14 22:55 Calm 10.00 Fair CLR 78.4 76.6 94% 82 30.09 0.0
14 22:35 Calm 10.00 Fair CLR 78.8 76.8 94% 83 30.08 0.0
14 22:15 Calm 10.00 Fair CLR 79 77 94% 83 30.08 0.0
14 21:55 Calm 10.00 Fair CLR 80.2 77 90% 86 30.08 0.0
14 21:40 Calm 10.00 Fair CLR 80.6 77.2 89% 87 30.08 0.0
14 21:15 Calm 10.00 Fair CLR 80.6 77.2 89% 87 30.08 0.0
14 20:55 Calm 10.00 Fair CLR 81.1 77.2 88% 88 30.07 0.0
14 20:35 SE 3 10.00 Fair CLR 81.5 77.2 87% 89 30.07 0.0
14 20:15 SE 3 10.00 Fair CLR 81.9 77.2 86% 90 30.07 0.0
14 19:55 SE 3 10.00 Fair CLR 82.9 77.4 83% 92 30.07 0.0
14 19:35 SE 3 10.00 Fair CLR 84.2 77 79% 94 30.08 0.0
14 19:15 SE 6 10.00 Fair CLR 86 76.8 74% 97 30.08 0.0
14 18:55 SE 3 10.00 Fair CLR 86.2 76.1 91 86 72% 96 30.08 0.0
14 18:35 E 7 10.00 Fair CLR 86.9 75.4 69% 97 30.08 0.0
14 18:15 E 6 10.00 Fair CLR 87.8 75.7 68% 98 30.08 0.0
14 17:55 E 6 10.00 Fair CLR 87.8 75.2 66% 98 30.07 0.0
14 17:35 E 3 10.00 Fair CLR 87.8 75 66% 98 30.07 0.0
14 17:15 SE 5 10.00 Fair CLR 88 74.3 64% 97 30.08 0.0
14 16:55 E 3 10.00 Fair CLR 88 74.5 64% 97 30.08 0.0
14 16:35 Calm 10.00 Fair CLR 88 74.3 64% 97 30.09 0.0
14 16:15 E 3 10.00 Fair CLR 88 74.1 64% 97 30.09 0.0
14 15:55 E 5 10.00 Fair CLR 88 73.9 63% 97 30.09 0.0
14 15:35 NE 5 10.00 Fair CLR 88.2 73.9 63% 97 30.11 0.0
14 15:15 E 6 10.00 Fair CLR 89.2 73.8 60% 98 30.11 0.0
14 14:55 Calm 10.00 Fair CLR 90.9 72.7 55% 99 30.12 0.0
14 14:35 N 6 10.00 Fair CLR 90 73.4 58% 99 30.12 0.0
14 14:15 E 6 10.00 Fair CLR 89.8 74.5 61% 100 30.13 0.0
14 13:55 NE 3 10.00 Fair CLR 90.3 76.5 64% 103 30.14 0.0
14 13:35 NE 6 10.00 Fair CLR 89.6 74.5 61% 99 30.15 0.0
14 13:15 E 5 10.00 Fair CLR 89.4 74.3 61% 99 30.15 0.0
14 12:55 NE 6 10.00 Fair CLR 89.1 75 89.2 74.1 63% 99 30.17 0.0
14 12:35 E 7 10.00 Fair CLR 88.9 74.8 63% 99 30.17 0.0
14 12:15 E 3 10.00 Fair CLR 88 74.3 64% 97 30.17 0.0
14 11:55 Calm 10.00 Fair CLR 87.4 75 67% 97 30.18 0.0
14 11:35 NE 5 10.00 Fair CLR 87.3 75.9 69% 98 30.18 0.0
14 11:15 NE 5 10.00 Fair CLR 86.2 76.5 73% 97 30.18 0.0
14 10:55 N 5 10.00 Fair CLR 85.5 75.9 73% 95 30.18 0.0
Date Time (cdt) Wind (mph) Vis. (mi.) Weather Sky Cond. Air Dwpt Max. Min. Relative Humidity Wind Chill (°F) Heat Index (°F) altimeter (in) sea level (mb) 1 hr 3 hr 6 hr
6 hour
Temperature (ºF) Pressure Precipitation (in)